Location: Asheville, NC
(35.6000°N, 82.5500°W)
Time: 03:14:08
(UTC-04:00)

CUTE 1.7 + AOD 2 - Pass Details

Date: 12 February 2018
Orbit: 593 x 614 km, 97.5° (Epoch: 24 May)

Event Time Altitude Azimuth Distance (km) Brightness Sun altitude
Rises 06:20:33 0° 33° (NNE) 2,838 ? -12.7°
Reaches altitude 10° 06:23:30 10° 56° (NE) 1,934 ? -12.1°
Maximum altitude 06:26:04 16° 93° (E) 1,591 ? -11.6°
Drops below altitude 10° 06:28:37 10° 131° (SE) 1,931 ? -11.0°
Sets 06:31:33 0° 154° (SSE) 2,833 ? -10.5°
